agriaffaires.com alexa rank chart, agriaffaires.com alexa rank daily changes

agriaffaires.com alexa rank chart, agriaffaires.com alexa rank daily changes

agriaffaires.com
Actual rank:
50 980

RANK HISTORY

Date Rank Diff
2017/01/17 50 980 -13
2017/01/16 50 993 -1 017
2017/01/15 52 010 +312
2017/01/14 51 698 -697
2017/01/13 52 395 +236
2017/01/12 52 159 -471
2017/01/11 52 630 +460
2017/01/10 52 170 -109
2017/01/09 52 279 +429
2017/01/08 51 850 -285
2017/01/07 52 135 -484
2017/01/06 52 619 -386
2017/01/05 53 005 -884
2017/01/04 53 889 -1 214
2017/01/03 55 103 -1 213
2017/01/02 56 316 -1 083
2017/01/01 57 399 +142
2016/12/31 57 257 -237
2016/12/30 57 494 -464
2016/12/29 57 958 -914
2016/12/28 58 872 -398
2016/12/27 59 270 +343
2016/12/26 58 927 +44
2016/12/25 58 883 -430
2016/12/24 59 313 +87
2016/12/23 59 226 +189
2016/12/22 59 037 +737
2016/12/21 58 300 +352
2016/12/20 57 948 -132
2016/12/19 58 080 -1 233
2016/12/18 59 313 +353
2016/12/17 58 960 +1 057
2016/12/16 57 903 +555
2016/12/15 57 348 +338
2016/12/14 57 010 -244
2016/12/13 57 254 -64
2016/12/12 57 318 -825
2016/12/11 58 143 +324
2016/12/10 57 819 +378
2016/12/09 57 441 -1 041
2016/12/08 58 482 +662
2016/12/07 57 820 +1 385
2016/12/06 56 435 +551
2016/12/05 55 884 +381
2016/12/04 55 503 +2 233
2016/12/02 53 270 +667
2016/12/01 52 603 -8
2016/11/30 52 611 +91
2016/11/29 52 520 +872
2016/11/28 51 648 -462
2016/11/27 52 110 -564
2016/11/26 52 674 -203
2016/11/25 52 877 -1 493
2016/11/24 54 370 -648
2016/11/23 55 018 -5 231
2016/11/19 60 249 -138
2016/11/18 60 387

WIDGET FOR YOUR SITE

DOMAINS WITH THE NEAREST RANK

Domain Rank
sinacloud.com 50 975
espares.co.uk 50 976
androidappsapk.co 50 977
moscowmap.ru 50 978
newsonair.com 50 979
agriaffaires.com 50 980
artdeseduire.com 50 981
cnnchile.com 50 982
superteachertools.us 50 983
way2pay.ir 50 984
automobile-catalog.com 50 985

DOMAINS WITH THE NEAREST RANK BY TLD .com

Domain Rank
theholidayspot.com 50 969
equibase.com 50 971
gaode.com 50 974
sinacloud.com 50 975
newsonair.com 50 979
agriaffaires.com 50 980
artdeseduire.com 50 981
cnnchile.com 50 982
automobile-catalog.com 50 985
humankinetics.com 50 986
elephorm.com 50 987